TimeEDT,TemperatureF,Dew PointF,Humidity,Sea Level PressureIn,VisibilityMPH,Wind Direction,Wind SpeedMPH,Gust SpeedMPH,PrecipitationIn,Events,Conditions,WindDirDegrees,DateUTC
12:53 AM,79.0,72.0,79,30.26,10.0,SSW,3.5,-,N/A,,Clear,210,2013-07-17 04:53:00
1:53 AM,80.1,72.0,76,30.27,10.0,WSW,4.6,-,N/A,,Mostly Cloudy,250,2013-07-17 05:53:00
2:53 AM,80.1,72.0,76,30.27,10.0,WSW,5.8,-,N/A,,Clear,250,2013-07-17 06:53:00
3:53 AM,78.1,72.0,81,30.27,10.0,WSW,4.6,-,N/A,,Clear,250,2013-07-17 07:53:00
4:53 AM,77.0,72.0,84,30.27,10.0,Calm,Calm,-,N/A,,Clear,0,2013-07-17 08:53:00
5:53 AM,73.0,71.1,93,30.28,7.0,Calm,Calm,-,N/A,,Partly Cloudy,0,2013-07-17 09:53:00
6:53 AM,72.0,71.1,97,30.30,5.0,Calm,Calm,-,N/A,,Clear,0,2013-07-17 10:53:00
7:53 AM,80.1,72.0,76,30.30,9.0,SW,4.6,-,N/A,,Clear,230,2013-07-17 11:53:00
8:53 AM,81.0,72.0,74,30.31,10.0,West,8.1,-,N/A,,Mostly Cloudy,260,2013-07-17 12:53:00
9:53 AM,82.9,73.0,72,30.31,10.0,West,9.2,-,N/A,,Partly Cloudy,270,2013-07-17 13:53:00
10:53 AM,84.0,73.0,69,30.30,10.0,West,9.2,-,N/A,,Clear,270,2013-07-17 14:53:00
11:53 AM,84.9,73.0,67,30.30,10.0,West,9.2,-,N/A,,Scattered Clouds,270,2013-07-17 15:53:00
12:53 PM,86.0,73.0,65,30.30,10.0,West,6.9,-,N/A,,Partly Cloudy,270,2013-07-17 16:53:00
1:53 PM,88.0,73.0,61,30.28,10.0,West,8.1,-,N/A,,Clear,280,2013-07-17 17:53:00
2:53 PM,89.1,73.0,59,30.27,10.0,West,8.1,-,N/A,,Clear,280,2013-07-17 18:53:00
3:53 PM,89.1,73.0,59,30.25,10.0,NW,8.1,-,N/A,,Clear,310,2013-07-17 19:53:00
4:53 PM,89.1,73.0,59,30.23,10.0,West,6.9,-,N/A,,Clear,270,2013-07-17 20:53:00
5:53 PM,90.0,72.0,55,30.22,10.0,West,6.9,-,N/A,,Clear,280,2013-07-17 21:53:00
6:53 PM,89.1,70.0,53,30.19,10.0,West,5.8,-,N/A,,Clear,280,2013-07-17 22:53:00
7:53 PM,88.0,70.0,55,30.18,10.0,Calm,Calm,-,N/A,,Clear,0,2013-07-17 23:53:00
8:53 PM,86.0,70.0,59,30.17,10.0,SSW,3.5,-,N/A,,Clear,210,2013-07-18 00:53:00
9:53 PM,80.1,72.0,76,30.17,9.0,Calm,Calm,-,N/A,,Clear,0,2013-07-18 01:53:00
10:53 PM,77.0,72.0,84,30.18,7.0,Calm,Calm,-,N/A,,Clear,0,2013-07-18 02:53:00
11:53 PM,77.0,72.0,84,30.18,7.0,Calm,Calm,-,N/A,,Clear,0,2013-07-18 03:53:00